Theta_e
310 311 312 311 311 310 307 306 310 311 309 309 308 305 303 306 307 305 304 302 297 294 295 296 296 295 294 293 293 292 292 292 292 293 294 294 293 294 294 293 294 294 294 293
311 311 310 312 311 311 311 309 307 307 307 308 307 305 307 308 307 306 306 304 300 296 295 295 296 296 295 293 293 292 292 292 292 292 294 294 292 294 294 293 293 294 294 293
311 310 310 308 310 311 311 309 308 309 311 309 309 309 309 309 308 308 307 304 301 298 296 296 296 296 295 294 293 293 293 292 293 292 293 294 293 294 294 293 292 293 293 292
311 310 305 308 311 312 313 313 308 309 308 308 307 308 307 306 308 308 308 304 301 300 297 297 296 296 295 294 294 293 293 293 293 292 292 293 293 294 293 293 292 291 292 291
307 311 311 312 312 312 312 310 310 310 310 310 310 310 308 309 307 306 307 305 302 301 298 297 296 296 295 294 294 293 293 293 293 293 292 292 293 294 293 293 292 291 291 291
310 312 310 308 311 310 309 308 311 311 311 312 309 306 307 306 304 304 307 305 301 299 298 297 297 296 295 295 294 294 294 293 293 293 292 292 292 293 293 293 293 291 291 291
307 307 308 310 311 310 313 310 314 312 312 311 308 309 309 308 303 303 303 302 302 300 299 299 297 296 295 295 294 295 294 294 294 293 293 292 292 292 293 293 293 292 291 291
307 308 309 309 311 311 309 310 310 309 310 310 308 308 308 310 305 303 301 301 301 300 300 299 298 297 296 295 296 295 295 294 294 293 293 292 292 292 292 293 293 293 292 291
308 308 308 308 308 307 306 309 308 309 309 309 309 309 309 309 309 305 303 302 301 301 300 300 299 298 296 297 296 295 295 295 294 294 293 292 292 292 292 293 293 293 292 292
313 312 312 311 311 310 310 310 310 309 309 309 310 309 308 307 306 306 305 303 303 300 299 299 299 299 299 299 297 296 295 295 295 294 293 292 292 292 292 292 293 293 293 293
311 312 311 311 311 311 311 311 311 310 310 310 309 309 308 308 307 307 308 306 304 301 300 301 301 300 299 299 297 296 296 295 295 294 293 293 292 292 292 292 292 292 293 293
312 311 310 311 310 310 311 312 311 311 311 310 310 308 308 307 308 307 307 308 305 303 302 303 302 302 301 300 298 297 296 295 295 294 294 293 293 292 292 292 292 292 292 293
310 310 309 310 310 310 311 312 311 310 309 309 310 309 309 307 308 309 308 307 306 306 306 304 303 302 303 301 299 297 296 296 295 295 294 293 293 292 291 292 292 292 292 292
310 310 310 309 309 310 311 311 311 311 311 310 310 310 309 307 308 307 307 308 307 307 306 306 305 304 304 303 301 299 298 297 296 295 295 294 293 292 292 292 291 292 292 292
310 309 309 309 308 308 309 309 308 309 308 309 310 308 308 307 307 307 307 307 307 306 306 306 305 305 305 303 301 300 299 297 297 295 295 294 293 293 292 292 291 292 292 292
309 309 309 309 310 309 309 309 308 308 308 308 308 308 309 308 308 308 308 308 306 305 305 305 305 305 305 303 302 300 298 298 298 296 294 293 293 292 292 291 291 291 291 291
309 310 310 309 310 310 311 309 308 308 307 307 308 308 307 307 307 306 305 304 304 304 303 302 302 302 304 304 303 301 299 298 297 295 294 294 293 292 292 291 291 291 291 291
307 308 308 308 309 309 308 307 307 308 307 307 306 305 304 303 302 303 302 302 302 301 300 299 299 300 300 301 301 300 299 297 296 295 294 293 293 292 292 291 291 291 291 291
308 308 308 307 307 306 306 306 307 307 307 307 305 301 301 300 299 299 299 298 298 298 297 298 298 298 298 297 297 297 297 296 295 294 293 293 292 292 291 291 291 291 293 293
308 308 308 307 307 306 305 306 306 306 306 305 302 301 300 300 301 300 299 297 297 297 298 299 299 299 298 298 298 298 297 297 297 296 296 295 294 293 293 293 293 293 293 293
306 306 306 306 306 306 306 306 306 305 302 302 301 299 299 300 301 301 298 296 298 298 298 298 297 297 296 296 296 296 295 295 295 295 295 295 295 294 294 293 293 292 292 291
306 306 306 306 305 303 303 303 303 301 300 299 300 299 299 299 299 298 298 297 297 296 296 295 295 295 296 296 295 294 293 292 292 292 292 292 293 292 292 292 291 291 291 291
306 306 306 305 303 301 300 300 299 299 298 297 296 296 296 296 296 296 295 295 295 295 293 293 293 293 293 292 292 292 292 292 292 291 291 292 291 290 290 290 289 290 290 290
304 304 302 302 301 299 297 296 295 295 294 295 294 294 294 294 293 293 293 292 291 291 291 291 290 289 289 288 288 289 289 289 288 289 289 289 289 288 288 288 289 289 288 288
300 299 297 296 295 295 294 293 292 293 293 292 291 290 291 291 291 290 290 290 290 289 288 287 287 286 286 286 286 286 286 287 287 288 288 288 289 289 289 289 289 288 287 287
297 295 293 292 292 291 291 291 290 290 289 288 288 289 288 288 288 288 287 287 286 285 284 284 283 283 283 284 284 284 284 284 285 285 286 286 287 287 287 287 288 288 288 287
293 293 291 291 290 290 289 289 288 287 287 287 286 286 286 285 284 284 283 283 283 282 282 282 282 282 283 283 283 283 284 284 285 285 285 286 286 286 287 287 286 286 287 287
Wind_Speed
6 11 7 9 13 9 9 8 8 17 9 16 8 8 8 6 4 5 7 6 5 6 11 12 15 16 15 15 12 7 6 4 2 1 3 3 3 5 8 8 9 8 9 13
5 7 5 9 13 10 11 7 13 10 14 15 12 6 6 8 7 8 8 7 6 7 13 14 16 16 16 17 13 9 6 4 3 2 5 1 4 4 8 7 7 7 8 11
5 6 9 8 6 5 4 4 7 7 16 3 7 8 7 8 7 9 8 7 7 7 14 17 17 17 18 17 15 10 4 5 3 4 3 2 3 2 4 5 6 5 6 9
4 6 4 7 11 8 9 10 9 6 6 7 8 5 6 7 7 9 8 8 7 10 12 15 16 18 16 15 16 12 8 7 7 6 4 2 4 0 3 3 4 5 3 7
1 1 8 10 4 3 1 7 3 6 6 6 4 0 6 6 7 8 7 11 12 13 15 18 18 18 18 17 17 15 13 11 10 10 8 5 4 5 4 2 1 2 1 5
2 1 5 6 3 2 3 4 4 5 4 2 2 4 5 5 5 6 11 14 14 15 15 18 20 20 20 19 19 19 17 15 12 11 12 8 8 6 5 4 3 2 2 5
3 3 9 11 10 2 2 6 3 2 2 5 4 6 6 2 8 14 16 18 17 18 19 20 19 21 22 20 21 19 17 16 16 16 15 11 10 10 10 8 8 9 7 7
3 3 8 7 3 4 7 4 5 5 5 7 9 9 8 8 8 11 16 17 20 22 21 19 19 22 23 23 20 18 17 18 19 18 16 14 14 13 14 14 12 11 11 11
10 8 7 5 7 8 6 7 7 6 11 8 9 8 8 6 8 14 21 23 24 26 25 23 23 24 26 26 22 20 20 22 23 21 19 17 17 17 15 18 16 15 15 14
2 8 16 13 15 7 7 8 6 7 9 6 6 8 7 6 7 9 20 24 28 27 25 27 28 29 28 22 21 22 24 25 26 25 24 22 22 21 20 20 21 21 19 19
7 17 8 19 14 11 10 7 6 7 6 8 7 7 6 6 7 13 17 23 27 28 27 31 29 31 31 27 24 26 26 27 28 30 29 28 27 26 27 26 25 26 26 23
9 22 5 18 9 10 10 8 10 9 10 8 7 7 5 4 8 11 14 15 19 27 28 31 29 30 31 31 30 30 31 31 31 31 32 32 31 30 29 29 27 27 26 26
16 10 9 16 15 8 13 14 12 9 10 8 6 8 6 4 5 8 10 10 13 19 27 31 31 31 31 31 31 35 36 35 33 32 33 33 33 33 29 29 30 30 30 28
13 6 10 9 9 6 7 13 17 13 17 14 15 11 9 6 5 4 6 10 11 12 13 18 25 31 31 32 33 36 38 39 37 37 35 36 35 34 33 30 28 30 29 31
19 14 15 17 8 12 18 12 9 7 4 6 9 7 5 4 3 4 7 8 9 10 11 13 18 25 27 30 35 39 41 41 40 40 38 38 35 33 33 32 32 33 31 28
7 9 8 9 13 9 9 8 7 5 2 1 4 5 5 6 6 8 10 12 11 12 14 15 16 19 21 26 31 37 41 43 41 40 37 36 35 33 32 32 30 30 30 32
8 14 13 9 10 9 8 7 5 6 5 6 6 6 8 8 10 12 13 13 13 14 16 18 18 20 21 21 23 30 37 39 42 41 36 35 32 31 30 28 30 31 31 31
16 19 18 11 9 4 5 6 8 8 5 6 9 12 13 13 7 10 14 16 18 20 20 18 20 20 20 18 18 21 27 30 30 29 33 30 30 30 27 27 27 26 25 23
11 8 6 8 9 10 8 8 9 11 11 11 13 13 11 10 10 11 13 14 17 17 18 15 15 15 17 18 15 11 8 7 8 11 13 17 19 21 20 20 21 22 26 28
11 15 17 14 16 16 11 11 11 12 9 10 11 12 13 13 13 13 14 14 12 7 9 11 13 15 15 15 16 15 14 13 11 10 10 9 10 10 9 10 13 17 20 21
9 13 12 12 11 12 11 10 10 11 12 12 12 10 12 13 14 12 9 6 8 9 9 11 14 14 14 14 14 15 15 15 15 14 14 15 17 16 16 16 17 19 21 21
10 8 10 12 15 17 20 21 20 18 17 16 15 14 13 13 12 10 9 9 9 11 12 14 14 14 13 13 12 13 13 13 13 14 13 14 14 16 17 18 19 19 20 22
11 11 12 14 15 15 18 19 17 14 14 12 13 11 10 9 9 9 6 13 14 12 11 11 11 11 11 12 13 14 15 14 16 16 15 15 13 13 15 16 18 18 16 18
16 17 18 18 16 15 12 11 13 13 11 10 12 12 11 10 10 11 8 8 10 10 10 12 14 16 16 16 15 14 14 15 17 17 16 17 20 20 21 21 18 17 21 22
16 17 16 14 13 9 9 9 10 10 10 13 13 13 13 13 10 10 11 11 11 11 13 15 17 18 18 17 17 17 17 18 19 19 19 19 19 18 18 19 19 21 22 24
14 12 14 13 10 10 11 10 9 11 12 12 13 13 14 14 14 14 14 13 14 16 18 19 20 20 19 18 19 19 20 20 19 20 20 20 20 20 20 21 21 22 21 21
13 15 14 14 14 11 12 13 16 12 11 12 12 13 13 14 15 14 14 15 16 18 19 19 18 17 17 18 19 19 19 19 20 21 20 19 20 21 21 19 19 19 21 21
Wind_Direction
246 263 261 254 260 231 205 211 198 266 219 263 248 242 253 263 246 249 254 247 219 192 197 188 187 185 187 181 175 164 157 146 144 130 199 27 65 54 47 39 47 49 47 39
285 273 295 277 263 243 234 218 242 269 276 272 270 228 251 237 250 261 251 234 225 193 192 193 189 190 190 183 184 180 171 174 185 139 193 35 84 73 25 64 58 51 41 32
271 319 325 313 259 191 206 191 186 215 245 258 270 251 254 250 236 251 246 228 213 204 193 188 186 185 184 185 185 188 195 209 225 173 180 230 120 61 75 68 54 62 50 31
276 353 357 244 298 233 209 248 214 269 258 229 241 266 232 231 233 257 238 215 211 208 190 185 182 182 178 184 189 196 204 222 230 220 216 253 247 272 135 57 35 30 53 26
178 244 287 304 345 51 103 293 254 229 272 276 292 195 301 245 222 235 212 208 209 204 193 183 184 185 182 185 192 203 211 219 224 227 220 235 290 219 183 360 359 347 349 352
137 200 251 241 293 37 84 310 329 105 78 66 129 357 262 245 211 210 199 196 189 189 188 190 194 191 187 194 198 209 219 227 229 228 223 244 240 236 242 284 280 263 289 308
152 242 280 255 273 240 71 239 248 239 248 186 202 215 240 265 220 211 197 195 194 189 193 200 197 195 199 204 211 224 226 228 227 224 228 237 233 240 234 247 258 264 272 275
141 181 279 209 287 194 212 239 252 275 258 259 241 260 247 239 221 210 206 202 201 198 206 208 203 202 210 215 232 226 224 225 220 223 230 235 239 242 241 239 239 249 262 264
181 212 237 249 218 222 191 218 254 270 280 264 276 258 250 239 217 217 214 212 210 209 211 211 209 212 216 234 229 224 225 226 223 224 229 233 235 237 243 241 243 251 254 260
131 250 248 248 251 246 236 232 253 261 257 253 246 273 259 261 254 229 221 217 220 213 215 218 217 218 229 239 230 224 226 227 226 224 227 229 234 238 242 241 241 246 251 256
263 271 264 257 257 261 273 267 278 268 242 247 235 249 235 251 250 244 238 227 222 215 219 229 229 227 230 233 228 222 227 228 228 227 228 231 233 235 236 242 245 247 251 255
242 253 232 276 278 273 277 275 276 275 291 254 250 254 254 263 280 263 247 244 226 227 229 239 238 238 240 235 228 226 227 229 232 232 232 234 237 241 243 249 250 252 256 256
245 255 234 257 274 270 267 265 267 255 250 263 239 210 216 216 266 286 255 245 235 235 240 244 245 244 245 244 236 231 234 238 236 236 236 237 237 240 244 249 249 251 252 255
242 258 276 245 257 250 241 256 273 272 280 248 233 230 229 234 257 262 268 267 267 266 262 256 252 251 251 246 241 237 239 242 241 241 239 239 237 239 242 244 250 255 252 250
262 256 253 275 276 271 272 268 267 246 258 279 268 248 238 231 268 327 354 347 323 298 291 289 275 270 269 256 243 239 238 241 243 244 245 243 243 242 244 245 246 253 261 262
241 249 255 245 275 270 266 271 239 238 232 92 75 53 60 82 80 61 49 38 32 3 355 342 321 313 304 285 264 248 244 244 246 246 244 243 241 239 239 239 242 248 253 259
259 271 265 268 261 275 259 244 185 148 121 96 80 67 60 59 58 36 22 10 357 344 344 337 327 326 319 305 289 271 258 254 249 241 242 243 241 237 239 242 246 248 255 265
236 250 259 248 263 248 76 62 79 90 81 86 74 68 59 51 41 14 5 358 352 350 2 350 332 327 329 319 301 289 275 265 259 251 252 248 249 250 244 246 251 255 266 276
244 213 171 144 138 110 101 89 85 85 78 80 74 77 67 46 25 11 9 17 19 15 6 9 9 11 13 7 358 356 341 323 300 285 278 271 264 256 252 252 258 260 274 272
100 103 105 100 101 99 95 89 91 86 83 85 86 64 54 46 38 36 36 51 49 38 13 16 14 16 11 6 7 13 15 13 10 357 346 332 314 307 288 273 271 276 282 282
109 108 105 100 91 77 68 58 67 75 77 71 71 65 56 50 40 36 38 41 16 5 1 8 12 5 4 2 3 3 358 350 343 335 326 317 312 307 299 293 285 288 292 291
124 116 114 107 90 79 74 74 75 78 73 68 65 61 56 42 30 29 57 35 16 8 359 359 354 349 344 340 345 348 345 341 337 332 328 321 317 309 303 298 295 294 293 290
123 113 103 106 107 97 85 80 78 78 74 61 51 45 46 38 32 31 9 3 352 345 350 9 7 1 357 356 353 346 341 336 333 328 324 321 325 324 317 310 309 308 298 296
94 86 89 99 100 78 69 60 68 65 65 60 54 41 31 23 24 16 16 38 26 24 33 17 4 357 352 348 345 343 339 337 334 334 328 320 309 305 303 303 300 305 315 313
89 86 76 73 72 70 67 65 73 71 72 66 56 39 30 40 46 28 20 28 31 24 7 358 353 348 343 342 341 340 335 330 325 321 317 313 310 311 309 307 300 302 307 301
97 88 88 80 81 85 86 86 76 65 62 47 46 40 40 36 40 35 31 26 11 0 356 350 347 344 345 347 343 337 333 329 328 325 322 321 316 313 311 309 308 307 302 305
94 109 107 97 93 93 82 77 84 70 54 55 51 41 39 32 25 23 9 6 5 358 352 349 349 342 336 333 330 330 326 327 324 324 322 320 320 318 313 307 308 302 299 307